Location: Peebles
(55.6412°N, 3.1714°W)
Time: 16:03:06
(UTC+01:00)

EO 1 Delta rocket - Pass Details

Date: 26 September 2021
Orbit: 698 x 1791 km, 95.4° (Epoch: 18 October)

Event Time Altitude Azimuth Distance (km) Brightness Sun altitude
Exits shadow 20:54:34 15° 159° (SSE) 1,970 5.7 -16.5°
Maximum altitude 20:58:44 76° 75° (ENE) 888 4.2 -17.1°
Drops below altitude 10° 21:04:53 10° 351° (N) 2,821 7.4 -17.9°
Sets 21:07:43 0° 350° (N) 3,940 8.2 -18.2°
